When you browse on this site, cookies collect data to enhance your experience and personalize the content and advertising you see.
Visit our Privacy Policy to learn more. By continuing to use the site, you agree to this use of cookies and data.
  • In Romania
  • List of Countries
  • For 7 days
  • Water Temperature
  • Satellite Maps
  • Weather Map
  • Weather Widgets
  • user-avatar
    Login

    Hourly Weather Maracaibo

    Today, 25 March, Monday

    Time Temperature Precipitation Wind Pressure Humidity
    00:00 +29°C° 0 mm 5 mps 754 mmHg 60%
    01:00 +29°C° 0 mm 4 mps 754 mmHg 59%
    02:00 +29°C° 0 mm 4 mps 753 mmHg 60%
    03:00 +28°C° 0 mm 4 mps 753 mmHg 62%
    04:00 +28°C° 0 mm 3 mps 753 mmHg 63%
    05:00 +28°C° 0 mm 3 mps 753 mmHg 62%
    06:00 +28°C° 0 mm 3 mps 753 mmHg 62%
    07:00 +28°C° 0 mm 3 mps 753 mmHg 61%
    08:00 +30°C° 0 mm 3 mps 754 mmHg 55%
    09:00 +32°C° 0 mm 2 mps 754 mmHg 50%
    10:00 +34°C° 0 mm 2 mps 754 mmHg 44%
    11:00 +35°C° 0 mm 2 mps 753 mmHg 43%
    12:00 +36°C° 0 mm 3 mps 752 mmHg 41%
    13:00 +37°C° 0 mm 3 mps 752 mmHg 40%
    14:00 +36°C° 0 mm 4 mps 751 mmHg 42%
    15:00 +35°C° 0 mm 5 mps 751 mmHg 44%
    16:00 +35°C° 0 mm 6 mps 750 mmHg 47%
    17:00 +34°C° 0 mm 6 mps 751 mmHg 51%
    18:00 +32°C° 0 mm 6 mps 751 mmHg 55%
    19:00 +30°C° 0 mm 6 mps 751 mmHg 59%
    20:00 +30°C° 0 mm 6 mps 752 mmHg 59%
    21:00 +29°C° 0 mm 6 mps 752 mmHg 60%
    22:00 +29°C° 0 mm 5 mps 753 mmHg 60%
    23:00 +29°C° 0 mm 5 mps 753 mmHg 61%

    Tomorrow, 26 March, Tuesday

    Time Temperature Precipitation Wind Pressure Humidity
    00:00 +28°C° 0 mm 5 mps 753 mmHg 62%
    01:00 +28°C° 0 mm 5 mps 753 mmHg 63%
    02:00 +28°C° 0 mm 5 mps 752 mmHg 63%
    03:00 +28°C° 0 mm 4 mps 752 mmHg 64%
    04:00 +27°C° 0 mm 4 mps 752 mmHg 65%
    05:00 +28°C° 0 mm 4 mps 752 mmHg 64%
    06:00 +28°C° 0 mm 3 mps 753 mmHg 63%
    07:00 +28°C° 0 mm 3 mps 753 mmHg 63%
    08:00 +30°C° 0 mm 3 mps 753 mmHg 57%
    09:00 +31°C° 0 mm 2 mps 754 mmHg 51%
    10:00 +34°C° 0 mm 2 mps 754 mmHg 45%
    11:00 +35°C° 0 mm 2 mps 753 mmHg 42%
    12:00 +36°C° 0 mm 2 mps 752 mmHg 40%
    13:00 +37°C° 0 mm 2 mps 751 mmHg 38%
    14:00 +37°C° 0 mm 3 mps 751 mmHg 39%
    15:00 +36°C° 0 mm 3 mps 750 mmHg 41%
    16:00 +36°C° 0 mm 4 mps 749 mmHg 42%
    17:00 +35°C° 0 mm 4 mps 750 mmHg 49%
    18:00 +33°C° 0 mm 5 mps 751 mmHg 55%
    19:00 +32°C° 0 mm 5 mps 751 mmHg 61%
    20:00 +30°C° 0 mm 5 mps 752 mmHg 63%
    21:00 +30°C° 0 mm 5 mps 752 mmHg 65%
    22:00 +30°C° 0 mm 4 mps 753 mmHg 67%
    23:00 +29°C° 0 mm 4 mps 753 mmHg 69%

    Day after tomorrow, 27 March, Wednesday

    Time Temperature Precipitation Wind Pressure Humidity
    00:00 +29°C° 0 mm 4 mps 753 mmHg 72%
    01:00 +29°C° 0 mm 4 mps 752 mmHg 74%
    02:00 +28°C° 0 mm 4 mps 752 mmHg 75%
    03:00 +28°C° 0 mm 4 mps 752 mmHg 75%
    04:00 +28°C° 0 mm 4 mps 752 mmHg 76%
    05:00 +28°C° 0 mm 4 mps 752 mmHg 74%
    06:00 +28°C° 0 mm 4 mps 753 mmHg 72%
    07:00 +29°C° 0 mm 4 mps 753 mmHg 70%
    08:00 +30°C° 0 mm 4 mps 754 mmHg 63%
    09:00 +31°C° 0 mm 3 mps 754 mmHg 56%
    10:00 +34°C° 0 mm 3 mps 754 mmHg 49%
    11:00 +35°C° 0 mm 3 mps 753 mmHg 46%
    12:00 +36°C° 0 mm 3 mps 753 mmHg 44%
    13:00 +37°C° 0 mm 3 mps 752 mmHg 41%
    14:00 +36°C° 0 mm 4 mps 751 mmHg 43%
    15:00 +35°C° 0 mm 5 mps 751 mmHg 45%
    16:00 +35°C° 0 mm 6 mps 750 mmHg 48%
    17:00 +33°C° 0 mm 6 mps 751 mmHg 53%
    18:00 +32°C° 0 mm 6 mps 751 mmHg 58%
    19:00 +30°C° 0 mm 6 mps 752 mmHg 64%
    20:00 +30°C° 0 mm 6 mps 752 mmHg 65%
    21:00 +30°C° 0 mm 5 mps 753 mmHg 67%
    22:00 +29°C° 0 mm 5 mps 754 mmHg 68%
    23:00 +29°C° 0 mm 5 mps 753 mmHg 70%

    28 March, Thursday

    Time Temperature Precipitation Wind Pressure Humidity
    00:00 +28°C° 0 mm 5 mps 753 mmHg 73%
    01:00 +28°C° 0 mm 5 mps 752 mmHg 75%
    02:00 +28°C° 0 mm 5 mps 752 mmHg 75%
    03:00 +28°C° 0 mm 5 mps 752 mmHg 75%
    04:00 +28°C° 0 mm 4 mps 752 mmHg 75%
    05:00 +28°C° 0 mm 4 mps 753 mmHg 74%
    06:00 +28°C° 0 mm 4 mps 753 mmHg 73%
    07:00 +28°C° 0 mm 4 mps 754 mmHg 72%
    08:00 +30°C° 0 mm 4 mps 754 mmHg 65%
    09:00 +31°C° 0 mm 3 mps 754 mmHg 58%
    10:00 +34°C° 0 mm 3 mps 754 mmHg 52%
    11:00 +35°C° 0 mm 3 mps 753 mmHg 49%
    12:00 +36°C° 0 mm 3 mps 752 mmHg 46%
    13:00 +36°C° 0 mm 3 mps 751 mmHg 44%
    14:00 +36°C° 0 mm 4 mps 751 mmHg 45%
    15:00 +36°C° 0 mm 4 mps 751 mmHg 46%
    16:00 +35°C° 0 mm 5 mps 750 mmHg 48%
    17:00 +34°C° 0.1 mm 5 mps 751 mmHg 52%
    18:00 +33°C° 0.1 mm 5 mps 751 mmHg 57%
    19:00 +32°C° 0.1 mm 5 mps 752 mmHg 62%
    20:00 +30°C° 0 mm 5 mps 753 mmHg 64%
    21:00 +30°C° 0 mm 5 mps 753 mmHg 66%
    22:00 +29°C° 0 mm 5 mps 754 mmHg 69%
    23:00 +29°C° 0 mm 5 mps 753 mmHg 71%

    29 March, Friday

    Time Temperature Precipitation Wind Pressure Humidity
    00:00 +29°C° 0 mm 5 mps 753 mmHg 74%
    01:00 +28°C° 0 mm 4 mps 752 mmHg 77%
    02:00 +28°C° 0 mm 5 mps 752 mmHg 77%
    03:00 +28°C° 0 mm 5 mps 752 mmHg 78%
    04:00 +28°C° 0 mm 5 mps 752 mmHg 79%
    05:00 +28°C° 0 mm 4 mps 753 mmHg 78%
    06:00 +28°C° 0 mm 4 mps 753 mmHg 77%
    07:00 +28°C° 0 mm 4 mps 754 mmHg 77%
    08:00 +29°C° 0 mm 4 mps 754 mmHg 74%
    09:00 +29°C° 0 mm 4 mps 754 mmHg 71%
    10:00 +30°C° 0 mm 4 mps 754 mmHg 69%
    11:00 +30°C° 0 mm 4 mps 753 mmHg 67%
    12:00 +32°C° 0 mm 4 mps 753 mmHg 66%
    13:00 +32°C° 0 mm 5 mps 752 mmHg 64%
    14:00 +32°C° 0 mm 5 mps 751 mmHg 65%
    15:00 +30°C° 0 mm 5 mps 751 mmHg 66%
    16:00 +30°C° 0 mm 5 mps 751 mmHg 67%
    17:00 +30°C° 0.2 mm 5 mps 751 mmHg 69%
    18:00 +29°C° 0.2 mm 5 mps 752 mmHg 70%
    19:00 +29°C° 0.2 mm 5 mps 752 mmHg 72%
    20:00 +29°C° 0 mm 5 mps 753 mmHg 73%
    21:00 +29°C° 0 mm 4 mps 753 mmHg 74%
    22:00 +29°C° 0 mm 4 mps 754 mmHg 75%
    23:00 +29°C° 0 mm 4 mps 753 mmHg 76%

    30 March, Saturday

    Time Temperature Precipitation Wind Pressure Humidity
    00:00 +28°C° 0 mm 4 mps 753 mmHg 78%
    01:00 +28°C° 0 mm 4 mps 752 mmHg 79%
    02:00 +28°C° 0.9 mm 4 mps 752 mmHg 80%
    03:00 +28°C° 0.9 mm 4 mps 752 mmHg 80%
    04:00 +28°C° 0.9 mm 4 mps 752 mmHg 81%
    05:00 +28°C° 1.4 mm 4 mps 753 mmHg 80%
    06:00 +28°C° 1.4 mm 4 mps 753 mmHg 79%
    07:00 +28°C° 1.4 mm 4 mps 754 mmHg 78%
    08:00 +29°C° 2 mm 4 mps 754 mmHg 73%
    09:00 +30°C° 2 mm 3 mps 754 mmHg 69%
    10:00 +31°C° 2 mm 3 mps 754 mmHg 65%
    11:00 +33°C° 1.6 mm 3 mps 753 mmHg 62%
    12:00 +34°C° 1.6 mm 2 mps 753 mmHg 60%
    13:00 +34°C° 1.6 mm 2 mps 752 mmHg 57%
    14:00 +32°C° 2.9 mm 2 mps 752 mmHg 61%
    15:00 +32°C° 2.9 mm 2 mps 751 mmHg 65%
    16:00 +31°C° 2.9 mm 3 mps 751 mmHg 69%
    17:00 +30°C° 2.6 mm 2 mps 752 mmHg 71%
    18:00 +30°C° 2.6 mm 2 mps 752 mmHg 74%
    19:00 +29°C° 2.6 mm 2 mps 753 mmHg 76%
    20:00 +29°C° 1.4 mm 2 mps 753 mmHg 78%
    21:00 +29°C° 1.4 mm 2 mps 754 mmHg 79%
    22:00 +29°C° 1.4 mm 1 mps 754 mmHg 80%
    23:00 +28°C° 2 mm 1 mps 754 mmHg 81%
    Show more